Terminal Aerodrome Forecast
Issued by NWS Tallahassee, FL

Home | Current Version | Previous Version | Text Only | Print | Product List | Glossary On
Versions: 1 2 3 4 5 6 7 8 9 10 11 12 13 14
000
FTUS42 KTAE 010500
TAFTLH
TAF
KTLH 010532Z 0106/0206 11007KT P6SM BKN250
     FM011700 16012G18KT P6SM BKN050
     FM020000 15011KT P6SM -RA OVC015=

USA.gov is the U.S. government's official web portal to all federal, state and local government web resources and services.